Location: Charbonni�res
(45.9952°N, 2.9982°E)
Time: 17:32:01
(UTC+00:00)

ADEOS - Pass Details

Date: 29 November 2020
Orbit: 792 x 795 km, 98.9° (Epoch: 17 January)

Event Time Altitude Azimuth Distance (km) Brightness Sun altitude
Rises 04:27:03 0° 15° (NNE) 3,309 6.9 -27.2°
Reaches altitude 10° 04:29:24 10° 17° (NNE) 2,374 6.2 -26.8°
Maximum altitude 04:34:39 79° 104° (ESE) 814 3.6 -25.9°
Drops below altitude 10° 04:39:52 10° 191° (SSW) 2,355 6.0 -25.0°
Sets 04:42:11 0° 193° (SSW) 3,279 6.7 -24.6°
